Time,TemperatureF,DewpointF,PressureIn,WindDirection,WindDirectionDegrees,WindSpeedMPH,WindSpeedGustMPH,Humidity,HourlyPrecipIn,Conditions,Clouds,dailyrainin,SoftwareType,DateUTC
2013-02-11 00:00:00,44.3,44.0,30.16,South,171,1.0,4.0,99,0.00,,,0.00,weatherlink.com 1.10,2013-02-11 05:00:00,
2013-02-11 00:15:00,44.7,45.0,30.15,NE,54,1.0,6.0,99,0.00,,,0.00,weatherlink.com 1.10,2013-02-11 05:15:00,
2013-02-11 00:30:00,45.0,45.0,30.17,NE,36,1.0,8.0,99,0.00,,,0.00,weatherlink.com 1.10,2013-02-11 05:30:00,
2013-02-11 00:45:00,44.8,45.0,30.17,NW,323,2.0,8.0,99,0.01,,,0.01,weatherlink.com 1.10,2013-02-11 05:45:00,
2013-02-11 01:00:00,44.6,44.0,30.16,NE,38,1.0,11.0,99,0.01,,,0.01,weatherlink.com 1.10,2013-02-11 06:00:00,
2013-02-11 01:15:00,44.3,44.0,30.15,NNW,347,3.0,5.0,99,0.02,,,0.02,weatherlink.com 1.10,2013-02-11 06:15:00,
2013-02-11 01:30:00,44.7,45.0,30.14,NNE,28,2.0,5.0,99,0.02,,,0.02,weatherlink.com 1.10,2013-02-11 06:30:00,
2013-02-11 01:45:00,44.7,45.0,30.15,NNE,19,2.0,6.0,99,0.01,,,0.02,weatherlink.com 1.10,2013-02-11 06:45:00,
2013-02-11 02:00:00,44.7,45.0,30.14,NE,51,0.0,6.0,99,0.02,,,0.03,weatherlink.com 1.10,2013-02-11 07:00:00,
2013-02-11 02:15:00,44.9,45.0,30.12,NE,46,0.0,5.0,99,0.02,,,0.04,weatherlink.com 1.10,2013-02-11 07:15:00,
2013-02-11 02:30:00,45.0,45.0,30.11,NE,45,0.0,6.0,99,0.02,,,0.04,weatherlink.com 1.10,2013-02-11 07:30:00,
2013-02-11 02:45:00,45.3,45.0,30.12,NE,55,2.0,6.0,99,0.02,,,0.04,weatherlink.com 1.10,2013-02-11 07:45:00,
2013-02-11 03:00:00,45.4,45.0,30.11,NNE,23,1.0,7.0,99,0.01,,,0.04,weatherlink.com 1.10,2013-02-11 08:00:00,
2013-02-11 03:15:00,44.8,45.0,30.12,NNW,334,1.0,4.0,99,0.00,,,0.04,weatherlink.com 1.10,2013-02-11 08:15:00,
2013-02-11 03:30:00,44.2,44.0,30.12,NNW,331,2.0,4.0,99,0.00,,,0.04,weatherlink.com 1.10,2013-02-11 08:30:00,
2013-02-11 03:46:00,44.3,44.0,30.10,WNW,284,3.0,5.0,99,0.01,,,0.05,weatherlink.com 1.10,2013-02-11 08:46:00,
2013-02-11 04:01:00,45.0,45.0,30.11,North,355,3.0,5.0,99,0.02,,,0.06,weatherlink.com 1.10,2013-02-11 09:01:00,
2013-02-11 04:16:00,45.8,46.0,30.11,North,5,4.0,7.0,99,0.03,,,0.07,weatherlink.com 1.10,2013-02-11 09:16:00,
2013-02-11 04:30:00,45.9,46.0,30.12,North,350,5.0,8.0,99,0.03,,,0.08,weatherlink.com 1.10,2013-02-11 09:30:00,
2013-02-11 04:45:00,45.8,46.0,30.12,NNW,347,2.0,8.0,99,0.04,,,0.09,weatherlink.com 1.10,2013-02-11 09:45:00,
2013-02-11 05:15:00,45.5,45.0,30.12,WNW,286,2.0,8.0,99,0.03,,,0.10,weatherlink.com 1.10,2013-02-11 10:15:00,
2013-02-11 05:30:00,45.5,45.0,30.12,SSW,194,1.0,7.0,99,0.02,,,0.10,weatherlink.com 1.10,2013-02-11 10:30:00,
2013-02-11 05:46:00,45.5,45.0,30.10,NE,53,0.0,6.0,99,0.02,,,0.11,weatherlink.com 1.10,2013-02-11 10:46:00,
2013-02-11 06:00:00,45.7,46.0,30.09,SW,218,3.0,6.0,99,0.01,,,0.11,weatherlink.com 1.10,2013-02-11 11:00:00,
2013-02-11 06:15:00,45.7,46.0,30.09,ENE,69,0.0,3.0,99,0.01,,,0.11,weatherlink.com 1.10,2013-02-11 11:15:00,
2013-02-11 06:25:00,45.9,45.6,30.09,ENE,65,0.0,9.0,99,0.00,,,0.11,Wunderground v.1.15,2013-02-11 11:25:00,
2013-02-11 06:31:00,46.0,46.0,30.09,NNE,26,3.0,5.0,99,0.01,,,0.11,weatherlink.com 1.10,2013-02-11 11:31:00,
2013-02-11 06:40:00,46.3,46.0,30.10,North,10,3.0,4.0,99,0.00,,,0.11,Wunderground v.1.15,2013-02-11 11:40:00,
2013-02-11 06:45:00,46.4,46.1,30.09,NW,313,3.0,3.0,99,0.00,,,0.11,Wunderground v.1.15,2013-02-11 11:45:00,
2013-02-11 06:50:00,46.4,46.1,30.09,NNW,331,2.0,3.0,99,0.00,,,0.11,Wunderground v.1.15,2013-02-11 11:50:00,
2013-02-11 07:00:00,46.3,46.0,30.10,SSW,198,1.0,1.0,99,0.00,,,0.11,Wunderground v.1.15,2013-02-11 12:00:00,
2013-02-11 07:10:00,46.7,46.4,30.10,SW,233,2.0,2.0,99,0.00,,,0.11,Wunderground v.1.15,2013-02-11 12:10:00,
2013-02-11 07:15:00,46.7,46.4,30.10,North,9,2.0,2.0,99,0.00,,,0.11,Wunderground v.1.15,2013-02-11 12:15:00,
2013-02-11 07:20:00,46.8,46.5,30.10,NNE,15,1.0,1.0,99,0.00,,,0.11,Wunderground v.1.15,2013-02-11 12:20:00,
2013-02-11 07:30:00,46.8,46.5,30.10,NNE,14,2.0,3.0,99,0.00,,,0.11,Wunderground v.1.15,2013-02-11 12:30:00,
2013-02-11 07:40:00,46.8,46.5,30.10,WSW,246,2.0,2.0,99,0.00,,,0.11,Wunderground v.1.15,2013-02-11 12:40:00,
2013-02-11 07:45:00,46.8,46.5,30.10,SSW,205,2.0,2.0,99,0.00,,,0.11,Wunderground v.1.15,2013-02-11 12:45:00,
2013-02-11 07:55:00,47.0,46.7,30.11,SSE,167,3.0,4.0,99,0.00,,,0.11,Wunderground v.1.15,2013-02-11 12:55:00,
2013-02-11 08:00:00,46.9,46.6,30.12,West,261,3.0,3.0,99,0.00,,,0.11,Wunderground v.1.15,2013-02-11 13:00:00,
2013-02-11 08:10:00,47.0,46.7,30.12,NNW,342,2.0,3.0,99,0.00,,,0.11,Wunderground v.1.15,2013-02-11 13:10:00,
2013-02-11 08:15:00,47.0,46.7,30.11,NNW,343,1.0,3.0,99,0.00,,,0.11,Wunderground v.1.15,2013-02-11 13:15:00,
2013-02-11 08:25:00,46.9,46.6,30.11,WSW,248,1.0,2.0,99,0.00,,,0.11,Wunderground v.1.15,2013-02-11 13:25:00,
2013-02-11 08:30:00,46.9,46.6,30.11,SSW,209,3.0,4.0,99,0.00,,,0.11,Wunderground v.1.15,2013-02-11 13:30:00,
2013-02-11 08:40:00,47.6,47.3,30.11,SSW,202,3.0,4.0,99,0.00,,,0.11,Wunderground v.1.15,2013-02-11 13:40:00,
2013-02-11 08:48:00,47.7,48.0,30.11,SSW,202,5.0,8.0,99,0.00,,,0.11,weatherlink.com 1.10,2013-02-11 13:48:00,
2013-02-11 08:55:00,47.9,47.6,30.11,SSW,213,5.0,6.0,99,0.00,,,0.11,Wunderground v.1.15,2013-02-11 13:55:00,
2013-02-11 09:00:00,48.0,47.7,30.11,SW,235,4.0,6.0,99,0.00,,,0.11,Wunderground v.1.15,2013-02-11 14:00:00,
2013-02-11 09:10:00,48.1,47.8,30.10,SW,236,3.0,3.0,99,0.00,,,0.11,Wunderground v.1.15,2013-02-11 14:10:00,
2013-02-11 09:18:00,48.4,48.0,30.10,SW,221,4.0,7.0,99,0.00,,,0.11,weatherlink.com 1.10,2013-02-11 14:18:00,
2013-02-11 09:25:00,48.5,48.2,30.10,West,264,4.0,4.0,99,0.00,,,0.11,Wunderground v.1.15,2013-02-11 14:25:00,
2013-02-11 09:30:00,48.5,48.2,30.10,NNE,19,4.0,4.0,99,0.00,,,0.11,Wunderground v.1.15,2013-02-11 14:30:00,
2013-02-11 09:40:00,48.7,48.4,30.09,NNW,344,3.0,4.0,99,0.00,,,0.11,Wunderground v.1.15,2013-02-11 14:40:00,
2013-02-11 09:48:00,48.9,49.0,30.10,West,269,3.0,9.0,99,0.00,,,0.11,weatherlink.com 1.10,2013-02-11 14:48:00,
2013-02-11 09:55:00,48.9,48.6,30.10,NW,309,5.0,5.0,99,0.00,,,0.11,Wunderground v.1.15,2013-02-11 14:55:00,
2013-02-11 10:03:00,48.8,49.0,30.10,SW,234,4.0,8.0,100,0.00,,,0.11,weatherlink.com 1.10,2013-02-11 15:03:00,
2013-02-11 10:10:00,48.8,48.5,30.09,WSW,242,5.0,5.0,99,0.00,,,0.11,Wunderground v.1.15,2013-02-11 15:10:00,
2013-02-11 10:15:00,48.9,48.6,30.08,SSW,211,5.0,6.0,99,0.00,,,0.11,Wunderground v.1.15,2013-02-11 15:15:00,
2013-02-11 10:20:00,49.0,48.7,30.08,SW,231,5.0,5.0,99,0.00,,,0.11,Wunderground v.1.15,2013-02-11 15:20:00,
2013-02-11 10:30:00,48.9,48.6,30.10,SW,232,6.0,6.0,99,0.00,,,0.11,Wunderground v.1.15,2013-02-11 15:30:00,
2013-02-11 10:36:00,48.8,49.0,30.10,West,281,3.0,9.0,100,0.00,,,0.11,weatherlink.com 1.10,2013-02-11 15:36:00,
2013-02-11 10:45:00,48.8,48.8,30.10,WSW,258,6.0,9.0,100,0.00,,,0.11,Wunderground v.1.15,2013-02-11 15:45:00,
2013-02-11 10:50:00,48.8,48.5,30.09,WSW,254,6.0,6.0,99,0.00,,,0.11,Wunderground v.1.15,2013-02-11 15:50:00,
2013-02-11 11:00:00,48.6,48.3,30.10,West,280,5.0,5.0,99,0.00,,,0.11,Wunderground v.1.15,2013-02-11 16:00:00,
2013-02-11 11:10:00,48.7,48.7,30.11,WNW,286,4.0,4.0,100,0.00,,,0.11,Wunderground v.1.15,2013-02-11 16:10:00,
2013-02-11 11:19:00,48.5,48.0,30.11,West,267,5.0,10.0,99,0.01,,,0.12,weatherlink.com 1.10,2013-02-11 16:19:00,
2013-02-11 11:25:00,48.5,48.2,30.11,WNW,286,4.0,5.0,99,0.00,,,0.12,Wunderground v.1.15,2013-02-11 16:25:00,
2013-02-11 11:30:00,48.3,48.0,30.10,West,279,4.0,4.0,99,0.00,,,0.12,Wunderground v.1.15,2013-02-11 16:30:00,
2013-02-11 11:40:00,48.2,47.9,30.10,WNW,284,5.0,5.0,99,0.00,,,0.12,Wunderground v.1.15,2013-02-11 16:40:00,
2013-02-11 11:50:00,48.2,48.0,30.08,NNW,341,3.0,9.0,99,0.01,,,0.12,weatherlink.com 1.10,2013-02-11 16:50:00,
2013-02-11 12:00:00,48.5,48.2,30.08,WNW,285,3.0,4.0,99,0.00,,,0.12,Wunderground v.1.15,2013-02-11 17:00:00,
2013-02-11 12:10:00,48.3,48.0,30.10,WNW,303,4.0,5.0,99,0.00,,,0.12,Wunderground v.1.15,2013-02-11 17:10:00,
2013-02-11 12:15:00,48.2,48.2,30.09,WNW,285,4.0,5.0,100,0.00,,,0.12,Wunderground v.1.15,2013-02-11 17:15:00,
2013-02-11 12:20:00,48.0,48.0,30.08,West,259,2.0,9.0,99,0.00,,,0.12,weatherlink.com 1.10,2013-02-11 17:20:00,
2013-02-11 12:30:00,48.2,48.2,30.08,WNW,286,4.0,4.0,100,0.00,,,0.12,Wunderground v.1.15,2013-02-11 17:30:00,
2013-02-11 12:36:00,48.3,48.0,30.09,WNW,291,5.0,9.0,100,0.00,,,0.12,weatherlink.com 1.10,2013-02-11 17:36:00,
2013-02-11 12:45:00,48.0,48.0,30.08,West,260,4.0,6.0,100,0.00,,,0.12,Wunderground v.1.15,2013-02-11 17:45:00,
2013-02-11 12:51:00,48.1,48.0,30.09,West,267,6.0,10.0,99,0.00,,,0.12,weatherlink.com 1.10,2013-02-11 17:51:00,
2013-02-11 13:00:00,47.7,47.4,30.09,WNW,290,5.0,5.0,99,0.00,,,0.12,Wunderground v.1.15,2013-02-11 18:00:00,
2013-02-11 13:05:00,47.3,47.0,30.09,West,275,6.0,6.0,99,0.00,,,0.12,Wunderground v.1.15,2013-02-11 18:05:00,
2013-02-11 13:15:00,47.2,46.9,30.11,West,277,6.0,7.0,99,0.00,,,0.12,Wunderground v.1.15,2013-02-11 18:15:00,
2013-02-11 13:20:00,47.1,47.1,30.10,WSW,245,6.0,11.0,100,0.00,,,0.12,Wunderground v.1.15,2013-02-11 18:20:00,
2013-02-11 13:30:00,46.0,45.7,30.09,NW,323,6.0,6.0,99,0.00,,,0.12,Wunderground v.1.15,2013-02-11 18:30:00,
2013-02-11 13:40:00,45.3,45.0,30.09,WSW,252,5.0,5.0,99,0.00,,,0.12,Wunderground v.1.15,2013-02-11 18:40:00,
2013-02-11 13:50:00,45.6,45.3,30.08,West,278,4.0,4.0,99,0.00,,,0.12,Wunderground v.1.15,2013-02-11 18:50:00,
2013-02-11 14:00:00,45.3,45.0,30.08,West,273,6.0,6.0,99,0.00,,,0.12,Wunderground v.1.15,2013-02-11 19:00:00,
2013-02-11 14:05:00,45.0,44.7,30.08,WSW,251,7.0,8.0,99,0.00,,,0.12,Wunderground v.1.15,2013-02-11 19:05:00,
2013-02-11 14:10:00,45.6,45.3,30.07,West,263,6.0,7.0,99,0.00,,,0.12,Wunderground v.1.15,2013-02-11 19:10:00,
2013-02-11 14:20:00,45.8,45.5,30.07,WSW,250,6.0,8.0,99,0.00,,,0.12,Wunderground v.1.15,2013-02-11 19:20:00,
2013-02-11 14:30:00,46.4,45.3,30.06,NW,311,6.0,6.0,96,0.00,,,0.12,Wunderground v.1.15,2013-02-11 19:30:00,
2013-02-11 14:37:00,46.4,45.0,30.06,WSW,254,4.0,10.0,95,0.00,,,0.12,weatherlink.com 1.10,2013-02-11 19:37:00,
2013-02-11 14:45:00,46.4,44.8,30.06,WNW,291,5.0,5.0,94,0.00,,,0.12,Wunderground v.1.15,2013-02-11 19:45:00,
2013-02-11 14:52:00,46.2,44.0,30.07,West,275,7.0,11.0,90,0.00,,,0.12,weatherlink.com 1.10,2013-02-11 19:52:00,
2013-02-11 15:00:00,46.2,42.2,30.06,WNW,298,6.0,6.0,86,0.00,,,0.12,Wunderground v.1.15,2013-02-11 20:00:00,
2013-02-11 15:07:00,46.1,43.0,30.07,West,275,5.0,11.0,87,0.00,,,0.12,weatherlink.com 1.10,2013-02-11 20:07:00,
2013-02-11 15:22:00,46.1,43.0,30.06,WNW,286,7.0,16.0,87,0.00,,,0.12,weatherlink.com 1.10,2013-02-11 20:22:00,
2013-02-11 15:37:00,45.9,44.0,30.06,West,275,4.0,14.0,91,0.00,,,0.12,weatherlink.com 1.10,2013-02-11 20:37:00,
2013-02-11 15:52:00,46.1,43.0,30.06,WNW,291,5.0,9.0,90,0.00,,,0.12,weatherlink.com 1.10,2013-02-11 20:52:00,
2013-02-11 16:07:00,46.1,41.0,30.08,West,271,7.0,12.0,83,0.00,,,0.12,weatherlink.com 1.10,2013-02-11 21:07:00,
2013-02-11 16:22:00,45.8,41.0,30.07,West,262,4.0,9.0,84,0.00,,,0.12,weatherlink.com 1.10,2013-02-11 21:22:00,
2013-02-11 16:30:00,45.6,41.0,30.07,WSW,240,4.0,13.0,84,0.00,,,0.12,Wunderground v.1.15,2013-02-11 21:30:00,
2013-02-11 16:37:00,45.5,41.0,30.07,WNW,298,4.0,9.0,85,0.00,,,0.12,weatherlink.com 1.10,2013-02-11 21:37:00,
2013-02-11 16:45:00,45.3,41.1,30.08,WNW,284,5.0,12.0,85,0.00,,,0.12,Wunderground v.1.15,2013-02-11 21:45:00,
2013-02-11 16:50:00,45.2,41.3,30.07,WNW,299,5.0,5.0,86,0.00,,,0.12,Wunderground v.1.15,2013-02-11 21:50:00,
2013-02-11 17:00:00,44.9,41.6,30.07,South,175,3.0,3.0,88,0.00,,,0.12,Wunderground v.1.15,2013-02-11 22:00:00,
2013-02-11 17:05:00,44.7,41.1,30.07,West,281,3.0,3.0,87,0.00,,,0.12,Wunderground v.1.15,2013-02-11 22:05:00,
2013-02-11 17:10:00,44.6,41.0,30.07,NW,315,3.0,3.0,87,0.00,,,0.12,Wunderground v.1.15,2013-02-11 22:10:00,
2013-02-11 17:22:00,44.5,41.0,30.06,NW,319,2.0,5.0,86,0.00,,,0.12,weatherlink.com 1.10,2013-02-11 22:22:00,
2013-02-11 17:37:00,44.6,41.0,30.05,West,264,0.0,4.0,86,0.00,,,0.12,weatherlink.com 1.10,2013-02-11 22:37:00,
2013-02-11 17:52:00,44.5,40.0,30.06,WNW,292,1.0,4.0,84,0.00,,,0.12,weatherlink.com 1.10,2013-02-11 22:52:00,
2013-02-11 18:07:00,44.2,40.0,30.07,WNW,300,0.0,4.0,84,0.00,,,0.12,weatherlink.com 1.10,2013-02-11 23:07:00,
2013-02-11 18:22:00,43.7,39.0,30.06,NNW,336,2.0,3.0,83,0.00,,,0.12,weatherlink.com 1.10,2013-02-11 23:22:00,
2013-02-11 18:37:00,43.2,39.0,30.07,NNW,336,3.0,5.0,84,0.00,,,0.12,weatherlink.com 1.10,2013-02-11 23:37:00,
2013-02-11 18:52:00,42.9,38.0,30.07,WNW,283,2.0,6.0,83,0.00,,,0.12,weatherlink.com 1.10,2013-02-11 23:52:00,
2013-02-11 19:07:00,42.2,38.0,30.08,NW,325,3.0,5.0,84,0.00,,,0.12,weatherlink.com 1.10,2013-02-12 00:07:00,
2013-02-11 19:22:00,42.4,37.0,30.07,NW,325,0.0,4.0,81,0.00,,,0.12,weatherlink.com 1.10,2013-02-12 00:22:00,
2013-02-11 19:37:00,42.4,35.0,30.07,NW,311,1.0,5.0,75,0.00,,,0.12,weatherlink.com 1.10,2013-02-12 00:37:00,
2013-02-11 19:52:00,42.1,30.0,30.07,NE,47,2.0,5.0,62,0.00,,,0.12,weatherlink.com 1.10,2013-02-12 00:52:00,
2013-02-11 20:07:00,42.1,27.0,30.08,NW,312,3.0,7.0,56,0.00,,,0.12,weatherlink.com 1.10,2013-02-12 01:07:00,
2013-02-11 20:22:00,41.8,27.0,30.08,North,349,5.0,7.0,55,0.00,,,0.12,weatherlink.com 1.10,2013-02-12 01:22:00,
2013-02-11 20:37:00,41.8,24.0,30.09,NW,321,3.0,7.0,49,0.00,,,0.12,weatherlink.com 1.10,2013-02-12 01:37:00,
2013-02-11 20:52:00,41.7,23.0,30.09,NNW,333,5.0,8.0,47,0.00,,,0.12,weatherlink.com 1.10,2013-02-12 01:52:00,
2013-02-11 21:07:00,41.5,22.0,30.09,WNW,286,2.0,8.0,46,0.00,,,0.12,weatherlink.com 1.10,2013-02-12 02:07:00,
2013-02-11 21:22:00,41.6,22.0,30.10,NW,313,4.0,9.0,46,0.00,,,0.12,weatherlink.com 1.10,2013-02-12 02:22:00,
2013-02-11 21:38:00,41.5,19.0,30.10,NE,55,6.0,11.0,41,0.00,,,0.12,weatherlink.com 1.10,2013-02-12 02:38:00,
2013-02-11 21:52:00,41.6,19.0,30.09,NW,305,2.0,5.0,41,0.00,,,0.12,weatherlink.com 1.10,2013-02-12 02:52:00,
2013-02-11 22:07:00,41.5,19.0,30.09,North,360,5.0,6.0,41,0.00,,,0.12,weatherlink.com 1.10,2013-02-12 03:07:00,
2013-02-11 22:22:00,41.6,20.0,30.09,NW,311,3.0,7.0,42,0.00,,,0.12,weatherlink.com 1.10,2013-02-12 03:22:00,
2013-02-11 22:38:00,41.5,20.0,30.08,NW,305,2.0,8.0,43,0.00,,,0.12,weatherlink.com 1.10,2013-02-12 03:38:00,
2013-02-11 22:53:00,41.2,18.0,30.07,WNW,302,3.0,9.0,40,0.00,,,0.12,weatherlink.com 1.10,2013-02-12 03:53:00,
2013-02-11 23:08:00,41.4,20.0,30.07,WNW,302,2.0,5.0,42,0.00,,,0.12,weatherlink.com 1.10,2013-02-12 04:08:00,
2013-02-11 23:23:00,40.9,20.0,30.07,NW,311,2.0,6.0,43,0.00,,,0.12,weatherlink.com 1.10,2013-02-12 04:23:00,
2013-02-11 23:38:00,40.4,21.0,30.10,West,268,4.0,7.0,47,0.00,,,0.12,weatherlink.com 1.10,2013-02-12 04:38:00,
2013-02-11 23:53:00,39.9,21.0,30.10,NNE,22,2.0,8.0,48,0.00,,,0.12,weatherlink.com 1.10,2013-02-12 04:53:00,